JST594 YPAD-YMML

Flight info

Callsign JST594
Flight time N/A
Altitude 360000
Route DCT AD V255 BENDO Y12 ARBEY H119 ML DCT
Aircraft A320/M-VGDW/C

Departure

Time 2026-05-04 08:55
Airport Adelaide International Airport (YPAD)

Arrival

Time N/A
Airport Melbourne Airport (YMML)
Time Latitude Longitude Altitude Speed Heading
2026-05-04 08:33 -34.93829 138.53992 24 ft 0 kts 318°
2026-05-04 08:48 -34.93831 138.53995 26 ft 2 kts 318°
2026-05-04 08:49 -34.93843 138.54007 26 ft 2 kts 318°
2026-05-04 08:50 -34.93901 138.54055 22 ft 0 kts 48°
2026-05-04 08:52 -34.93900 138.54055 22 ft 1 kts 48°
2026-05-04 08:52 -34.93885 138.54080 19 ft 6 kts 54°
2026-05-04 08:52 -34.93891 138.54143 20 ft 9 kts 136°
2026-05-04 08:52 -34.93946 138.54197 20 ft 11 kts 142°
2026-05-04 08:53 -34.93998 138.54247 20 ft 9 kts 142°
2026-05-04 08:54 -34.94836 138.53201 36 ft 145 kts 229°
2026-05-04 08:55 -34.95499 138.52181 560 ft 164 kts 232°
2026-05-04 08:55 -34.96263 138.51024 1177 ft 186 kts 232°
2026-05-04 08:55 -34.97130 138.49751 1923 ft 203 kts 231°
2026-05-04 08:55 -34.98098 138.48369 2635 ft 224 kts 229°
2026-05-04 08:57 -35.08160 138.44545 5007 ft 282 kts 146°
2026-05-04 09:01 -35.08390 138.85263 9540 ft 406 kts 87°
2026-05-04 09:01 -35.08166 138.88686 9973 ft 404 kts 88°
2026-05-04 09:01 -35.07943 138.92109 10359 ft 405 kts 88°
2026-05-04 09:01 -35.07717 138.95541 10744 ft 404 kts 88°
2026-05-04 09:02 -35.07490 138.98963 11136 ft 404 kts 88°
2026-05-04 09:02 -35.07263 139.02386 11531 ft 403 kts 88°
2026-05-04 09:02 -35.07031 139.05801 11933 ft 403 kts 88°